FW1564 Weather Reports


time (UTC)temp
C
wind
direction
speed
KPH
gust
KPH
rain 1hr
cm
rain 24hr
cm
rain mn
cm
humidity
%
barometer
mb
20260510073431 11 304 0.0 6.4 0.00 0.00 0.00 70 1014.5
20260510072431 11 347 1.6 6.4 0.00 0.00 0.00 70 1014.4
20260510071432 11 325 3.2 4.8 0.00 0.00 0.00 71 1014.2
20260510070432 11 358 3.2 6.4 0.00 0.00 0.00 72 1014.2
20260510065906 10 343 3.2 9.7 0.00 0.00 0.00 74 1014.1
20260510064431 10 345 1.6 4.8 0.00 0.00 0.00 72 1014.3
20260510063432 10 342 1.6 6.4 0.00 0.00 0.00 72 1014.1
20260510062432 10 346 1.6 6.4 0.00 0.00 0.00 74 1014.0
20260510061431 10 349 3.2 4.8 0.00 0.00 0.00 72 1014.1
20260510060431 10 331 4.8 6.4 0.00 0.00 0.00 72 1013.7
20260510055910 10 339 3.2 9.7 0.00 0.00 0.00 70 1014.1
20260510054431 10 46 4.8 9.7 0.00 0.00 0.00 72 1013.7
20260510053919 10 356 1.6 6.4 0.00 0.00 0.00 69 1013.8
20260510052433 10 341 6.4 11.3 0.00 0.00 0.00 71 1013.8
20260510051433 10 338 6.4 11.3 0.00 0.00 0.00 70 1013.5
20260510050909 10 4 4.8 9.7 0.00 0.00 0.00 70 1013.7
20260510045434 10 342 6.4 11.3 0.00 0.00 0.00 70 1013.3
20260510044432 10 345 4.8 9.7 0.00 0.00 0.00 69 1013.6
20260510043432 10 341 4.8 9.7 0.00 0.00 0.00 68 1013.4
20260510042432 10 349 4.8 12.9 0.00 0.00 0.00 69 1013.3
20260510041431 10 339 4.8 9.7 0.00 0.00 0.00 65 1013.8
20260510040432 10 342 8.0 11.3 0.00 0.00 0.00 64 1013.3
20260510035431 10 339 4.8 11.3 0.00 0.00 0.00 64 1013.4
20260510034435 10 336 6.4 9.7 0.00 0.00 0.00 65 1013.3
20260510033431 10 343 1.6 6.4 0.00 0.00 0.00 65 1013.2
20260510032431 10 342 3.2 6.4 0.00 0.00 0.00 63 1013.3
20260510031430 10 332 8.0 9.7 0.00 0.00 0.00 63 1013.5
20260510030430 10 342 3.2 9.7 0.00 0.00 0.00 60 1013.3
20260510025431 10 322 3.2 11.3 0.00 0.00 0.00 60 1013.2
20260510024431 11 10 6.4 11.3 0.00 0.00 0.00 60 1013.3
20260510023431 11 347 3.2 9.7 0.00 0.00 0.00 58 1013.3
20260510022431 11 342 3.2 11.3 0.00 0.00 0.00 59 1013.4
20260510021431 11 308 1.6 9.7 0.00 0.00 0.00 59 1013.7
20260510020431 11 70 6.4 9.7 0.00 0.00 0.00 59 1013.7
20260510015431 11 352 8.0 9.7 0.00 0.00 0.00 63 1013.6
20260510014432 11 340 3.2 9.7 0.00 0.00 0.00 62 1013.7
20260510013431 11 342 6.4 9.7 0.00 0.00 0.00 66 1013.5
20260510012431 11 341 4.8 9.7 0.00 0.00 0.00 70 1013.7
20260510011431 11 339 3.2 6.4 0.00 0.00 0.00 69 1013.9
20260510010431 10 341 3.2 6.4 0.00 0.00 0.00 72 1013.8
20260510005431 11 13 6.4 6.4 0.00 0.00 0.00 70 1013.7
20260510004913 11 333 1.6 11.3 0.00 0.00 0.00 70 1013.9
20260510003431 11 260 0.0 4.8 0.00 0.00 0.00 69 1013.8
20260510002431 11 33 3.2 11.3 0.00 0.00 0.00 69 1014.0
20260510001430 11 326 3.2 6.4 0.00 0.00 0.00 73 1014.2
20260510000433 11 344 3.2 9.7 0.00 0.00 0.00 73 1014.2
20260509235430 11 350 6.4 14.5 0.00 0.00 0.00 74 1014.0
20260509234431 11 4 6.4 11.3 0.00 0.00 0.00 74 1014.2
20260509233431 11 325 6.4 6.4 0.00 0.00 0.00 75 1014.0
20260509232909 11 3 0.0 9.7 0.00 0.00 0.00 76 1014.1
20260509231909 11 295 0.0 6.4 0.00 0.00 0.00 75 1014.1
20260509230444 11 12 1.6 4.8 0.00 0.00 0.00 73 1013.9
20260509225431 11 338 3.2 6.4 0.00 0.00 0.00 72 1013.8
20260509224431 11 66 4.8 6.4 0.00 0.00 0.00 74 1013.9
20260509224343 11 338 3.2 4.8 0.00 0.00 0.00 75 1013.8
20260509222430 11 34 0.0 4.8 0.00 0.00 0.00 75 1014.0
20260509221432 11 324 0.0 4.8 0.00 0.00 0.00 77 1013.8
20260509220431 11 11 1.6 3.2 0.00 0.00 0.00 77 1014.0
20260509215431 12 341 6.4 6.4 0.00 0.00 0.00 76 1013.9
20260509214433 12 288 0.0 9.7 0.00 0.00 0.00 74 1013.8
20260509213431 11 339 4.8 11.3 0.00 0.00 0.00 79 1013.8
20260509212431 11 322 1.6 6.4 0.00 0.00 0.00 77 1013.9
20260509211431 11 336 6.4 9.7 0.00 0.00 0.00 78 1013.8
20260509210430 11 319 3.2 9.7 0.00 0.00 0.00 76 1013.6
20260509205431 11 342 4.8 6.4 0.00 0.00 0.00 77 1013.5
20260509204432 12 340 4.8 9.7 0.00 0.00 0.00 75 1013.1
20260509203919 12 354 1.6 6.4 0.00 0.00 0.00 75 1013.2
20260509202431 12 122 0.0 11.3 0.00 0.00 0.00 74 1012.8
20260509201913 13 325 0.0 9.7 0.00 0.00 0.00 72 1013.0
20260509200431 13 225 0.0 9.7 0.00 0.00 0.00 70 1012.8
20260509195431 12 76 3.2 4.8 0.00 0.00 0.00 74 1013.1
20260509194431 12 340 0.0 6.4 0.00 0.00 0.00 76 1012.8
20260509193431 13 335 1.6 3.2 0.00 0.00 0.00 75 1012.7
20260509192431 13 39 0.0 6.4 0.00 0.00 0.00 74 1012.5
20260509191432 13 285 0.0 6.4 0.00 0.00 0.00 72 1012.5
20260509190431 13 129 1.6 9.7 0.00 0.00 0.00 72 1012.6
20260509185911 13 230 9.7 14.5 0.00 0.00 0.00 72 1012.6
20260509184431 14 300 0.0 12.9 0.00 0.00 0.00 73 1012.4
20260509183431 14 61 4.8 9.7 0.00 0.00 0.00 74 1012.3
20260509182431 14 287 1.6 6.4 0.00 0.03 0.00 74 1012.4
20260509181431 15 135 3.2 11.3 0.00 0.10 0.00 72 1012.2
20260509180911 15 321 0.0 9.7 0.00 0.15 0.00 72 1012.2
20260509175918 15 267 1.6 12.9 0.00 0.15 0.00 72 1012.3
20260509174431 15 317 3.2 9.7 0.00 0.15 0.00 73 1012.2
20260509173430 15 134 4.8 9.7 0.00 0.15 0.00 72 1012.1
20260509172431 15 138 4.8 14.5 0.00 0.15 0.00 75 1012.1
20260509171432 15 83 3.2 17.7 0.00 0.15 0.00 73 1012.2
20260509170431 16 276 3.2 12.9 0.00 0.15 0.00 73 1012.0
20260509165431 16 132 3.2 9.7 0.00 0.15 0.00 73 1012.0
20260509164431 15 50 6.4 11.3 0.00 0.15 0.00 73 1011.9
20260509163431 16 262 1.6 9.7 0.00 0.15 0.00 76 1012.1
20260509162910 16 172 8.0 11.3 0.00 0.15 0.00 70 1012.1
20260509161916 15 114 4.8 14.5 0.00 0.15 0.00 78 1012.1
20260509160431 15 87 1.6 12.9 0.00 0.15 0.00 76 1012.0
20260509155917 17 168 3.2 16.1 0.00 0.15 0.00 69 1011.8
20260509153431 16 193 4.8 12.9 0.00 0.15 0.00 68 1011.6
20260509152431 16 108 3.2 17.7 0.00 0.15 0.00 69 1011.7
20260509151431 16 297 0.0 11.3 0.00 0.15 0.00 67 1011.8
20260509150918 17 241 9.7 16.1 0.00 0.15 0.00 63 1011.9
20260509145431 17 100 1.6 14.5 0.00 0.15 0.00 66 1011.8
20260509144906 16 51 3.2 27.4 0.00 0.15 0.00 67 1011.9
20260509143431 17 62 12.9 20.9 0.00 0.15 0.00 63 1011.7
20260509142431 16 89 4.8 20.9 0.00 0.15 0.00 69 1011.9
20260509141431 16 119 6.4 16.1 0.00 0.15 0.00 71 1011.9
20260509140431 16 154 1.6 12.9 0.00 0.15 0.00 68 1011.8
20260509135430 17 339 6.4 20.9 0.00 0.15 0.00 63 1011.5
20260509134431 17 151 1.6 16.1 0.00 0.15 0.00 62 1011.5
20260509133432 17 238 1.6 9.7 0.00 0.15 0.00 63 1011.5
20260509132433 16 18 3.2 17.7 0.00 0.15 0.00 69 1011.5
20260509131433 16 209 6.4 14.5 0.00 0.15 0.00 71 1011.6
20260509130432 16 90 3.2 14.5 0.00 0.15 0.00 70 1011.8
20260509125431 16 115 11.3 12.9 0.00 0.15 0.00 72 1011.7
20260509124430 16 325 6.4 16.1 0.00 0.15 0.00 71 1011.5
20260509123431 17 173 1.6 14.5 0.00 0.15 0.00 65 1011.5
20260509122432 16 30 3.2 11.3 0.00 0.15 0.00 66 1011.4
20260509121431 16 230 6.4 12.9 0.00 0.15 0.00 69 1011.5
20260509120431 17 95 3.2 20.9 0.00 0.15 0.00 66 1011.4
20260509115432 17 226 9.7 17.7 0.00 0.15 0.00 65 1011.1
20260509114431 16 128 9.7 20.9 0.00 0.15 0.00 70 1011.3
20260509113913 16 179 4.8 22.5 0.00 0.15 0.00 72 1011.2
20260509112430 16 218 6.4 16.1 0.00 0.15 0.00 71 1011.4
20260509112352 16 226 3.2 16.1 0.00 0.15 0.00 69 1011.3
20260509110444 16 277 4.8 17.7 0.00 0.15 0.00 71 1011.3
20260509105431 16 205 6.4 22.5 0.00 0.15 0.00 69 1011.3
20260509104432 16 158 12.9 17.7 0.00 0.15 0.00 71 1011.3
20260509103912 16 121 6.4 17.7 0.00 0.15 0.00 70 1011.1
20260509102431 16 142 4.8 16.1 0.00 0.15 0.00 74 1011.0
20260509101430 16 297 4.8 16.1 0.00 0.15 0.00 72 1011.0
20260509100422 16 155 8.0 14.5 0.00 0.15 0.00 67 1011.1
20260509095420 16 186 3.2 14.5 0.00 0.15 0.00 69 1011.1
20260509094420 16 165 6.4 14.5 0.00 0.15 0.00 68 1011.2
20260509093422 16 144 8.0 12.9 0.00 0.15 0.00 67 1011.1
20260509092419 16 130 9.7 14.5 0.00 0.15 0.00 67 1010.9
20260509091429 15 116 9.7 16.1 0.00 0.15 0.00 70 1010.7
20260509090430 16 91 3.2 12.9 0.00 0.15 0.00 69 1010.6
20260509085421 16 158 4.8 9.7 0.00 0.15 0.00 69 1010.5
20260509084420 15 133 3.2 6.4 0.00 0.20 0.00 73 1010.4
20260509083421 15 353 1.6 3.2 0.00 0.23 0.00 75 1010.4
20260509082420 15 26 0.0 3.2 0.00 0.30 0.00 75 1010.4
20260509081421 13 264 0.0 4.8 0.00 0.38 0.00 80 1010.3
20260509080422 13 99 1.6 6.4 0.00 0.53 0.00 78 1010.2
20260509075420 13 15 0.0 4.8 0.00 0.53 0.00 79 1010.2
20260509074902 12 51 1.6 6.4 0.00 0.53 0.00 82 1010.0